GSAT0226 (GALILEO 31)

Last updated on Sun Apr 12 2026 00:02:39 GMT+0000 (Coordinated Universal Time)

1 61183U 24167B 26101.22526913 .00000002 00000+0 00000+0 0 9999 2 61183 55.2055 223.1568 0001624 175.5403 188.2901 1.70474466 9713
UTC large
Height (km)
Speed (km/s)
/
Latitude / Longitude
Inclination (degrees)
Orbital Period (minutes)
Azimuth
Elevation
Range (km)
Doppler Factor

Next 0 passes for location: London (51.5072 / 0.1276)

Sorry there are no passes over London.